Hourly Data Report for October 20, 2016

All times are specified in Local Standard Time (LST). Add 1 hour to adjust for Daylight Saving Time where and when it is observed.

CLYDE RIVER A
NUNAVUT

70°29'09.000" N
68°31'01.000" W
26.50 m
2400804
71090
YCY

Download Data

Hourly Data (October 2016)
Hourly Data Report for October 20, 2016
Temp Definition
°C
Dew Point Temp Definition
°C
Rel Hum Definition
%
Wind Dir Definition
10's deg

Wind Spd Definition
km/h
Visibility Definition
km
Stn Press Definition
kPa
Hmdx Definition


Wind Chill Definition


Weather Definition


TIME
00:00 Legend Double Dagger -10.6 -15.1 70   0 16.1 100.53     LegendNANA
01:00 Legend Double Dagger -9.9 -15.0 67   0 16.1 100.48     LegendNANA
02:00 Legend Double Dagger -8.8 -13.9 67 26 8 16.1 100.42   -13 LegendNANA
03:00 Legend Double Dagger -6.7 -13.0 61 27 22 16.1 100.35   -14 LegendNANA
04:00 Legend Double Dagger -6.9 -12.6 64   0 16.1 100.29     LegendNANA
05:00 Legend Double Dagger -7.1 -13.0 63 29 8 16.1 100.22   -11 LegendNANA
06:00 Legend Double Dagger -8.5 -12.9 71 LegendMM 4 16.1 100.16   -11 LegendNANA
07:00 Legend Double Dagger -7.7 -11.2 76   0 16.1 100.07     LegendNANA
08:00 Legend Double Dagger -9.0 -11.4 83 31 8 16.1 99.98   -13 LegendNANA
09:00 Legend Double Dagger -8.4 -11.0 82 35 9 16.1 99.90   -13 LegendNANA
10:00 Legend Double Dagger -6.9 -10.9 73   0 16.1 99.81     LegendNANA
11:00 Legend Double Dagger -6.1 -10.0 74 17 15 16.1 99.75   -12 LegendNANA
12:00 Legend Double Dagger -4.7 -7.6 80 18 13 16.1 99.70   -10 LegendNANA
13:00 Legend Double Dagger -4.3 -8.9 70 LegendMM 4 16.1 99.69   -6 LegendNANA
14:00 Legend Double Dagger -4.6 -8.0 77 19 17 16.1 99.66   -10 LegendNANA
15:00 Legend Double Dagger -6.7 -8.7 86 33 13 16.1 99.67   -12 LegendNANA
16:00 Legend Double Dagger -8.3 -10.0 88 31 21 16.1 99.70   -16 LegendNANA
17:00 Legend Double Dagger -7.9 -10.6 81 29 22 16.1 99.70   -16 LegendNANA
18:00 Legend Double Dagger -8.0 -10.1 85 30 22 16.1 99.71   -16 LegendNANA
19:00 Legend Double Dagger -6.9 -8.7 87 29 22 16.1 99.73   -14 Snow
20:00 Legend Double Dagger -6.4 -7.6 91 29 22 4.8 99.73   -14 Snow
21:00 Legend Double Dagger -6.4 -7.6 91 29 21 9.7 99.75   -13 Snow
22:00 Legend Double Dagger -5.9 -7.0 92 28 18 4.8 99.76   -12 Snow
23:00 Legend Double Dagger -5.6 -6.8 91 30 26 12.9 99.77   -13 Snow

Notes on Data Quality.

Legend

  • E = Estimated
  • M = Missing
  • NA = Not Available
  • ‡ = Partner data that is not subject to review by the National Climate Archives
Date modified: